Content
SEND FEEDBACK

Daily
Averages
Monthly
Summary
United Kingdom

LONDON, ENGLAND


Home > Europe > United Kingdom > England
Elevation: 61 meters     Latitude: 51 09N     Longitude: 000 11W

WEATHER
 
SELECT A DAY
Number of Records: 288,808;   Date Range: 7/1/96 - 4/16/14
 
SHARE

PRINT THIS DATA

[ ← Previous Day ]
WEATHER ALMANAC - 25 JANUARY, 2013
[ Next Day → ]
[ °F ]   °C
Weather ElementAverageHighLow
Temperature1.2 °C3 °C (8:20 pm)0 °C (12:50 am)
Dewpoint-1.6 °C1 °C (10:50 pm)-3 °C (1:20 pm)
Humidity82.1 %93 % (11:50 pm)70 % (1:20 pm)
Barometer1013.5 hPa1020 hPa (12:50 am)1002 hPa (11:50 pm)
Wind Speed11.3 km/h20.4 km/h (9:50 pm)
Weather ElementAverage
Visibility8.2 km
Wind DirectionESE (116.4 °)

Weather ElementTotal
Precipitation---
Heating Degree Days16.8 (Base 18.3)
Averaged from 47 records on 25 January, 2013
WEATHER CONDITIONS BREAKOUT
WIND DIRECTION BREAKOUT
WEATHER BY HOUR - 25 JANUARY, 2013
[ °F ]   °C
Local TimeTemperatureDewpointHumidityBarometerVisibilityWind DirectionWind SpeedGust SpeedPrecipitationEventsConditions
12:50 AM0 °C-2 °C87 %1020 hPa9 kmCalmOvercast
1:20 AM0 °C-2 °C87 %1020 hPa9 kmCalmOvercast
1:50 AM0 °C-2 °C87 %1019 hPa8 kmEast (80°)3.7 km/hOvercast
2:20 AM0 °C-2 °C87 %1019 hPa8 kmCalmOvercast
2:50 AM0 °C-2 °C87 %1019 hPa8 kmVariable3.7 km/hOvercast
3:20 AM0 °C-2 °C87 %1019 hPa8 kmCalmOvercast
3:50 AM0 °C-2 °C87 %1019 hPa6.9 kmVariable3.7 km/hOvercast
4:20 AM0 °C-2 °C87 %1020 hPa8 kmVariable5.6 km/hOvercast
4:50 AM0 °C-2 °C87 %1019 hPa8 kmENE (70°)5.6 km/hOvercast
5:20 AM0 °C-2 °C87 %1019 hPa8 kmEast (80°)5.6 km/hOvercast
5:50 AM0 °C-2 °C87 %1019 hPa8 kmEast (90°)7.4 km/hOvercast
6:20 AM0 °C-2 °C87 %1019 hPa8 kmEast (100°)9.3 km/hOvercast
6:50 AM0 °C-2 °C87 %1019 hPa10 kmVariable3.7 km/hOvercast
7:20 AM0 °C-2 °C87 %1017.9 hPa10 kmEast (100°)5.6 km/hMostly Cloudy
7:50 AM0 °C-2 °C87 %1017.9 hPa10 kmESE (110°)7.4 km/hMostly Cloudy
8:20 AM1 °C-2 °C81 %1017.9 hPa10 kmSSE (150°)9.3 km/hMostly Cloudy
8:50 AM1 °C-2 °C81 %1017.9 hPa10 kmSSE (150°)7.4 km/hMostly Cloudy
9:20 AM1 °C-2 °C81 %1017.9 hPa10 kmSE (130°)11.1 km/hMostly Cloudy
9:50 AM1 °C-2 °C81 %1017.9 hPa10 kmSE (130°)9.3 km/hMostly Cloudy
10:20 AM1 °C-2 °C81 %1017.3 hPa10 kmSE (140°)9.3 km/hMostly Cloudy
10:50 AM2 °C-2 °C75 %1017.3 hPa10 kmSE (140°)11.1 km/hMostly Cloudy
11:20 AM2 °C-2 °C75 %1017.3 hPa10 kmSSE (150°)14.8 km/hMostly Cloudy
11:50 AM2 °C-2 °C75 %1016.3 hPa10 kmSSE (150°)13 km/hMostly Cloudy
12:20 PM2 °C-2 °C75 %1016.3 hPa10 kmSSE (150°)14.8 km/hMostly Cloudy
12:50 PM2 °C-2 °C75 %1015.2 hPa10 kmSSE (150°)14.8 km/hMostly Cloudy
1:20 PM2 °C-3 °C70 %1015.2 hPa10 kmSSE (160°)16.7 km/hMostly Cloudy
1:50 PM2 °C-3 °C70 %1014.2 hPa10 kmSSE (150°)16.7 km/hMostly Cloudy
2:20 PM1 °C-3 °C75 %1014.2 hPa10 kmSSE (150°)18.5 km/hMostly Cloudy
2:50 PM1 °C-3 °C75 %1013.2 hPa10 kmSSE (150°)16.7 km/hMostly Cloudy
3:20 PM1 °C-3 °C75 %1012.2 hPa10 kmSSE (150°)16.7 km/hMostly Cloudy
3:50 PM1 °C-3 °C75 %1012.2 hPa9 kmSSE (150°)16.7 km/hOvercast
4:20 PM1 °C-2 °C81 %1011.2 hPa10 kmSSE (150°)13 km/hMostly Cloudy
4:50 PM1 °C-2 °C81 %1011.2 hPa10 kmSE (140°)13 km/hOvercast
5:20 PM1 °C-2 °C81 %1010.2 hPa10 kmSSE (150°)14.8 km/hOvercast
5:50 PM1 °C-2 °C81 %1010.2 hPa8 kmSSE (150°)13 km/hMostly Cloudy
6:20 PM1 °C-2 °C81 %1009.1 hPa6.9 kmSSE (150°)13 km/hOvercast
6:50 PM1 °C-1 °C87 %1008.1 hPa8 kmSSE (150°)14.8 km/hMostly Cloudy
7:20 PM2 °C-1 °C81 %1007.1 hPa5 kmSSE (150°)13 km/hHaze
7:50 PM2 °C0 °C87 %1006.1 hPa5 kmSSE (150°)13 km/hHaze
8:20 PM3 °C0 °C81 %1006.1 hPa5 kmSSE (160°)13 km/hHaze
8:50 PM3 °C0 °C81 %1005.1 hPa5 kmSSE (150°)16.7 km/hHaze
9:20 PM3 °C0 °C81 %1004.1 hPa5 kmSSE (160°)18.5 km/hHaze
9:50 PM3 °C0 °C81 %1004.1 hPa5 kmSSE (160°)20.4 km/hHaze
10:20 PM3 °C0 °C81 %1003 hPa5 kmSSE (160°)18.5 km/hRain-SnowLight Rain
10:50 PM3 °C1 °C87 %1003 hPa4.5 kmSouth (170°)18.5 km/hRainLight Rain
11:20 PM3 °C1 °C87 %1003 hPa4 kmSouth (170°)16.7 km/hRainLight Rain
11:50 PM2 °C1 °C93 %1002 hPa3.5 kmSouth (170°)16.7 km/hRainLight Rain
Hourly data recorded from EGKK, located 1.67 kilometers away from London, England







STORIES FROM OUR PARTNERS